"Time","Value","Approval","myLocation"
"2023-04-20 00:00",5.688,"Approved","OW437"
"2023-04-20 01:00",5.691,"Approved","OW437"
"2023-04-20 02:00",5.692,"Approved","OW437"
"2023-04-20 03:00",5.694,"Approved","OW437"
"2023-04-20 04:00",5.697,"Approved","OW437"
"2023-04-20 05:00",5.7,"Approved","OW437"
"2023-04-20 06:00",5.701,"Approved","OW437"
"2023-04-20 07:00",5.704,"Approved","OW437"
"2023-04-20 08:00",5.705,"Approved","OW437"
"2023-04-20 09:00",5.707,"Approved","OW437"
"2023-04-20 10:00",5.708,"Approved","OW437"
"2023-04-20 11:00",5.71,"Approved","OW437"
"2023-04-20 12:00",5.71,"Approved","OW437"
"2023-04-20 13:00",5.711,"Approved","OW437"
"2023-04-20 14:00",5.711,"Approved","OW437"
"2023-04-20 15:00",5.712,"Approved","OW437"
"2023-04-20 16:00",5.711,"Approved","OW437"
"2023-04-20 17:00",5.711,"Approved","OW437"
"2023-04-20 18:00",5.711,"Approved","OW437"
"2023-04-20 19:00",5.709,"Approved","OW437"
"2023-04-20 20:00",5.71,"Approved","OW437"
"2023-04-20 21:00",5.709,"Approved","OW437"
"2023-04-20 22:00",5.709,"Approved","OW437"
"2023-04-20 23:00",5.711,"Approved","OW437"
"2023-04-21 00:00",5.71,"Approved","OW437"
"2023-04-21 01:00",5.709,"Approved","OW437"
"2023-04-21 02:00",5.707,"Approved","OW437"
"2023-04-21 03:00",5.71,"Approved","OW437"
"2023-04-21 04:00",5.714,"Approved","OW437"
"2023-04-21 05:00",5.717,"Approved","OW437"
"2023-04-21 06:00",5.721,"Approved","OW437"
"2023-04-21 07:00",5.724,"Approved","OW437"
"2023-04-21 08:00",5.727,"Approved","OW437"
"2023-04-21 09:00",5.73,"Approved","OW437"
"2023-04-21 10:00",5.733,"Approved","OW437"
"2023-04-21 11:00",5.736,"Approved","OW437"
"2023-04-21 12:00",5.739,"Approved","OW437"
"2023-04-21 13:00",5.742,"Approved","OW437"
"2023-04-21 14:00",5.745,"Approved","OW437"
"2023-04-21 15:00",5.748,"Approved","OW437"
"2023-04-21 16:00",5.75,"Approved","OW437"
"2023-04-21 17:00",5.752,"Approved","OW437"
"2023-04-21 18:00",5.754,"Approved","OW437"
"2023-04-21 19:00",5.756,"Approved","OW437"
"2023-04-21 20:00",5.758,"Approved","OW437"
"2023-04-21 21:00",5.76,"Approved","OW437"
"2023-04-21 22:00",5.761,"Approved","OW437"
"2023-04-21 23:00",5.762,"Approved","OW437"
"2023-04-22 00:00",5.763,"Approved","OW437"
"2023-04-22 01:00",5.764,"Approved","OW437"
"2023-04-22 02:00",5.766,"Approved","OW437"
"2023-04-22 03:00",5.766,"Approved","OW437"
"2023-04-22 04:00",5.768,"Approved","OW437"
"2023-04-22 05:00",5.77,"Approved","OW437"
"2023-04-22 06:00",5.771,"Approved","OW437"
"2023-04-22 07:00",5.771,"Approved","OW437"
"2023-04-22 08:00",5.773,"Approved","OW437"
"2023-04-22 09:00",5.773,"Approved","OW437"
"2023-04-22 10:00",5.774,"Approved","OW437"
"2023-04-22 11:00",5.776,"Approved","OW437"
"2023-04-22 12:00",5.776,"Approved","OW437"
"2023-04-22 13:00",5.776,"Approved","OW437"
"2023-04-22 14:00",5.777,"Approved","OW437"
"2023-04-22 15:00",5.779,"Approved","OW437"
"2023-04-22 16:00",5.779,"Approved","OW437"
"2023-04-22 17:00",5.781,"Approved","OW437"
"2023-04-22 18:00",5.782,"Approved","OW437"
"2023-04-22 19:00",5.782,"Approved","OW437"
"2023-04-22 20:00",5.783,"Approved","OW437"
"2023-04-22 21:00",5.783,"Approved","OW437"
"2023-04-22 22:00",5.784,"Approved","OW437"
"2023-04-22 23:00",5.785,"Approved","OW437"
"2023-04-23 00:00",5.784,"Approved","OW437"
"2023-04-23 01:00",5.785,"Approved","OW437"
"2023-04-23 02:00",5.784,"Approved","OW437"
"2023-04-23 03:00",5.785,"Approved","OW437"
"2023-04-23 04:00",5.786,"Approved","OW437"
"2023-04-23 05:00",5.786,"Approved","OW437"
"2023-04-23 06:00",5.787,"Approved","OW437"
"2023-04-23 07:00",5.786,"Approved","OW437"
"2023-04-23 08:00",5.788,"Approved","OW437"
"2023-04-23 09:00",5.788,"Approved","OW437"
"2023-04-23 10:00",5.789,"Approved","OW437"
"2023-04-23 11:00",5.79,"Approved","OW437"
"2023-04-23 12:00",5.792,"Approved","OW437"
"2023-04-23 13:00",5.794,"Approved","OW437"
"2023-04-23 14:00",5.797,"Approved","OW437"
"2023-04-23 15:00",5.8,"Approved","OW437"
"2023-04-23 16:00",5.802,"Approved","OW437"
"2023-04-23 17:00",5.805,"Approved","OW437"
"2023-04-23 18:00",5.809,"Approved","OW437"
"2023-04-23 19:00",5.812,"Approved","OW437"
"2023-04-23 20:00",5.815,"Approved","OW437"
"2023-04-23 21:00",5.817,"Approved","OW437"
"2023-04-23 22:00",5.82,"Approved","OW437"
"2023-04-23 23:00",5.822,"Approved","OW437"
"2023-04-24 00:00",5.823,"Approved","OW437"
"2023-04-24 01:00",5.826,"Approved","OW437"
"2023-04-24 02:00",5.826,"Approved","OW437"
"2023-04-24 03:00",5.829,"Approved","OW437"
"2023-04-24 04:00",5.833,"Approved","OW437"
"2023-04-24 05:00",5.834,"Approved","OW437"
"2023-04-24 06:00",5.836,"Approved","OW437"
"2023-04-24 07:00",5.839,"Approved","OW437"
"2023-04-24 08:00",5.841,"Approved","OW437"
"2023-04-24 09:00",5.845,"Approved","OW437"
"2023-04-24 10:00",5.849,"Approved","OW437"
"2023-04-24 11:00",5.853,"Approved","OW437"
"2023-04-24 12:00",5.856,"Approved","OW437"
"2023-04-24 13:00",5.859,"Approved","OW437"
"2023-04-24 14:00",5.863,"Approved","OW437"
"2023-04-24 15:00",5.867,"Approved","OW437"
"2023-04-24 16:00",5.869,"Approved","OW437"
"2023-04-24 17:00",5.872,"Approved","OW437"
"2023-04-24 18:00",5.875,"Approved","OW437"
"2023-04-24 19:00",5.877,"Approved","OW437"
"2023-04-24 20:00",5.879,"Approved","OW437"
"2023-04-24 21:00",5.881,"Approved","OW437"
"2023-04-24 22:00",5.883,"Approved","OW437"
"2023-04-24 23:00",5.884,"Approved","OW437"
"2023-04-25 00:00",5.886,"Approved","OW437"
"2023-04-25 01:00",5.888,"Approved","OW437"
"2023-04-25 02:00",5.89,"Approved","OW437"
"2023-04-25 03:00",5.891,"Approved","OW437"
"2023-04-25 04:00",5.893,"Approved","OW437"
"2023-04-25 05:00",5.893,"Approved","OW437"
"2023-04-25 06:00",5.897,"Approved","OW437"
"2023-04-25 07:00",5.898,"Approved","OW437"
"2023-04-25 08:00",5.899,"Approved","OW437"
"2023-04-25 09:00",5.902,"Approved","OW437"
"2023-04-25 10:00",5.903,"Approved","OW437"
"2023-04-25 11:00",5.905,"Approved","OW437"
"2023-04-25 12:00",5.906,"Approved","OW437"
"2023-04-25 13:00",5.907,"Approved","OW437"
"2023-04-25 14:00",5.909,"Approved","OW437"
"2023-04-25 15:00",5.91,"Approved","OW437"
"2023-04-25 16:00",5.91,"Approved","OW437"
"2023-04-25 17:00",5.912,"Approved","OW437"
"2023-04-25 18:00",5.914,"Approved","OW437"
"2023-04-25 19:00",5.915,"Approved","OW437"
"2023-04-25 20:00",5.914,"Approved","OW437"
"2023-04-25 21:00",5.915,"Approved","OW437"
"2023-04-25 22:00",5.916,"Approved","OW437"
"2023-04-25 23:00",5.917,"Approved","OW437"
"2023-04-26 00:00",5.917,"Approved","OW437"
"2023-04-26 01:00",5.918,"Approved","OW437"
"2023-04-26 02:00",5.918,"Approved","OW437"
"2023-04-26 03:00",5.919,"Approved","OW437"
"2023-04-26 04:00",5.921,"Approved","OW437"
"2023-04-26 05:00",5.922,"Approved","OW437"
"2023-04-26 06:00",5.922,"Approved","OW437"
"2023-04-26 07:00",5.922,"Approved","OW437"
"2023-04-26 08:00",5.923,"Approved","OW437"
"2023-04-26 09:00",5.924,"Approved","OW437"
"2023-04-26 10:00",5.925,"Approved","OW437"
"2023-04-26 11:00",5.925,"Approved","OW437"
"2023-04-26 12:00",5.929,"Approved","OW437"
"2023-04-26 13:00",5.926,"Approved","OW437"
"2023-04-26 14:00",5.928,"Approved","OW437"
"2023-04-26 15:00",5.93,"Approved","OW437"
"2023-04-26 16:00",5.93,"Approved","OW437"
"2023-04-26 17:00",5.932,"Approved","OW437"
"2023-04-26 18:00",5.932,"Approved","OW437"
"2023-04-26 19:00",5.932,"Approved","OW437"
"2023-04-26 20:00",5.933,"Approved","OW437"
"2023-04-26 21:00",5.936,"Approved","OW437"
"2023-04-26 22:00",5.936,"Approved","OW437"
"2023-04-26 23:00",5.936,"Approved","OW437"
"2023-04-27 00:00",5.938,"Approved","OW437"
"2023-04-27 01:00",5.939,"Approved","OW437"
"2023-04-27 02:00",5.94,"Approved","OW437"
"2023-04-27 03:00",5.941,"Approved","OW437"
"2023-04-27 04:00",5.941,"Approved","OW437"
"2023-04-27 05:00",5.943,"Approved","OW437"
"2023-04-27 06:00",5.945,"Approved","OW437"
"2023-04-27 07:00",5.946,"Approved","OW437"
"2023-04-27 08:00",5.947,"Approved","OW437"
"2023-04-27 09:00",5.949,"Approved","OW437"
"2023-04-27 10:00",5.95,"Approved","OW437"
"2023-04-27 11:00",5.951,"Approved","OW437"
"2023-04-27 12:00",5.953,"Approved","OW437"
"2023-04-27 13:00",5.955,"Approved","OW437"
"2023-04-27 14:00",5.956,"Approved","OW437"
"2023-04-27 15:00",5.958,"Approved","OW437"
"2023-04-27 16:00",5.959,"Approved","OW437"
"2023-04-27 17:00",5.959,"Approved","OW437"
"2023-04-27 18:00",5.961,"Approved","OW437"
"2023-04-27 19:00",5.96,"Approved","OW437"
"2023-04-27 20:00",5.959,"Approved","OW437"
"2023-04-27 21:00",5.959,"Approved","OW437"
"2023-04-27 22:00",5.959,"Approved","OW437"
"2023-04-27 23:00",5.959,"Approved","OW437"
"2023-04-28 00:00",5.958,"Approved","OW437"
"2023-04-28 01:00",5.958,"Approved","OW437"
"2023-04-28 02:00",5.957,"Approved","OW437"
"2023-04-28 03:00",5.958,"Approved","OW437"
"2023-04-28 04:00",5.959,"Approved","OW437"
"2023-04-28 05:00",5.96,"Approved","OW437"
"2023-04-28 06:00",5.961,"Approved","OW437"
"2023-04-28 07:00",5.962,"Approved","OW437"
"2023-04-28 08:00",5.963,"Approved","OW437"
"2023-04-28 09:00",5.963,"Approved","OW437"
"2023-04-28 10:00",5.963,"Approved","OW437"
"2023-04-28 11:00",5.964,"Approved","OW437"
"2023-04-28 12:00",5.965,"Approved","OW437"
"2023-04-28 13:00",5.965,"Approved","OW437"
"2023-04-28 14:00",5.967,"Approved","OW437"
"2023-04-28 15:00",5.968,"Approved","OW437"
"2023-04-28 16:00",5.968,"Approved","OW437"
"2023-04-28 17:00",5.967,"Approved","OW437"
"2023-04-28 18:00",5.968,"Approved","OW437"
"2023-04-28 19:00",5.967,"Approved","OW437"
"2023-04-28 20:00",5.967,"Approved","OW437"
"2023-04-28 21:00",5.966,"Approved","OW437"
"2023-04-28 22:00",5.965,"Approved","OW437"
"2023-04-28 23:00",5.965,"Approved","OW437"
"2023-04-29 00:00",5.964,"Approved","OW437"
"2023-04-29 01:00",5.964,"Approved","OW437"
"2023-04-29 02:00",5.965,"Approved","OW437"
"2023-04-29 03:00",5.966,"Approved","OW437"
"2023-04-29 04:00",5.968,"Approved","OW437"
"2023-04-29 05:00",5.97,"Approved","OW437"
"2023-04-29 06:00",5.971,"Approved","OW437"
"2023-04-29 07:00",5.973,"Approved","OW437"
"2023-04-29 08:00",5.975,"Approved","OW437"
"2023-04-29 09:00",5.976,"Approved","OW437"
"2023-04-29 10:00",5.977,"Approved","OW437"
"2023-04-29 11:00",5.979,"Approved","OW437"
"2023-04-29 12:00",5.98,"Approved","OW437"
"2023-04-29 13:00",5.982,"Approved","OW437"
"2023-04-29 14:00",5.984,"Approved","OW437"
"2023-04-29 15:00",5.986,"Approved","OW437"
"2023-04-29 16:00",5.987,"Approved","OW437"
"2023-04-29 17:00",5.989,"Approved","OW437"
"2023-04-29 18:00",5.989,"Approved","OW437"
"2023-04-29 19:00",5.99,"Approved","OW437"
"2023-04-29 20:00",5.991,"Approved","OW437"
"2023-04-29 21:00",5.991,"Approved","OW437"
"2023-04-29 22:00",5.992,"Approved","OW437"
"2023-04-29 23:00",5.991,"Approved","OW437"
"2023-04-30 00:00",5.991,"Approved","OW437"
"2023-04-30 01:00",5.993,"Approved","OW437"
"2023-04-30 02:00",5.993,"Approved","OW437"
"2023-04-30 03:00",5.993,"Approved","OW437"
"2023-04-30 04:00",5.995,"Approved","OW437"
"2023-04-30 05:00",5.997,"Approved","OW437"
"2023-04-30 06:00",5.998,"Approved","OW437"
"2023-04-30 07:00",5.999,"Approved","OW437"
"2023-04-30 08:00",6,"Approved","OW437"
"2023-04-30 09:00",6.001,"Approved","OW437"
"2023-04-30 10:00",6.003,"Approved","OW437"
"2023-04-30 11:00",6.004,"Approved","OW437"
"2023-04-30 12:00",6.005,"Approved","OW437"
"2023-04-30 13:00",6.008,"Approved","OW437"
"2023-04-30 14:00",6.009,"Approved","OW437"
"2023-04-30 15:00",6.011,"Approved","OW437"
"2023-04-30 16:00",6.012,"Approved","OW437"
"2023-04-30 17:00",6.014,"Approved","OW437"
"2023-04-30 18:00",6.016,"Approved","OW437"
"2023-04-30 19:00",6.017,"Approved","OW437"
"2023-04-30 20:00",6.018,"Approved","OW437"
"2023-04-30 21:00",6.02,"Approved","OW437"
"2023-04-30 22:00",6.022,"Approved","OW437"
"2023-04-30 23:00",6.023,"Approved","OW437"
"2023-05-01 00:00",6.024,"Approved","OW437"
"2023-05-01 01:00",6.025,"Approved","OW437"
"2023-05-01 02:00",6.026,"Approved","OW437"
"2023-05-01 03:00",6.028,"Approved","OW437"
"2023-05-01 04:00",6.03,"Approved","OW437"
"2023-05-01 05:00",6.032,"Approved","OW437"
"2023-05-01 06:00",6.033,"Approved","OW437"
"2023-05-01 07:00",6.034,"Approved","OW437"
"2023-05-01 08:00",6.036,"Approved","OW437"
"2023-05-01 09:00",6.037,"Approved","OW437"
"2023-05-01 10:00",6.039,"Approved","OW437"
"2023-05-01 11:00",6.04,"Approved","OW437"
"2023-05-01 12:00",6.042,"Approved","OW437"
"2023-05-01 13:00",6.042,"Approved","OW437"
"2023-05-01 14:00",6.043,"Approved","OW437"
"2023-05-01 15:00",6.046,"Approved","OW437"
"2023-05-01 16:00",6.047,"Approved","OW437"
"2023-05-01 17:00",6.047,"Approved","OW437"
"2023-05-01 18:00",6.049,"Approved","OW437"
"2023-05-01 19:00",6.049,"Approved","OW437"
"2023-05-01 20:00",6.05,"Approved","OW437"
"2023-05-01 21:00",6.05,"Approved","OW437"
"2023-05-01 22:00",6.051,"Approved","OW437"
"2023-05-01 23:00",6.052,"Approved","OW437"
"2023-05-02 00:00",6.054,"Approved","OW437"
"2023-05-02 01:00",6.055,"Approved","OW437"
"2023-05-02 02:00",6.057,"Approved","OW437"
"2023-05-02 03:00",6.059,"Approved","OW437"
"2023-05-02 04:00",6.06,"Approved","OW437"
"2023-05-02 05:00",6.062,"Approved","OW437"
"2023-05-02 06:00",6.064,"Approved","OW437"
"2023-05-02 07:00",6.064,"Approved","OW437"
"2023-05-02 08:00",6.066,"Approved","OW437"
"2023-05-02 09:00",6.069,"Approved","OW437"
"2023-05-02 10:00",6.07,"Approved","OW437"
"2023-05-02 11:00",6.073,"Approved","OW437"
"2023-05-02 12:00",6.073,"Approved","OW437"
"2023-05-02 13:00",6.073,"Approved","OW437"
"2023-05-02 14:00",6.075,"Approved","OW437"
"2023-05-02 15:00",6.075,"Approved","OW437"
"2023-05-02 16:00",6.077,"Approved","OW437"
"2023-05-02 17:00",6.076,"Approved","OW437"
"2023-05-02 18:00",6.077,"Approved","OW437"
"2023-05-02 19:00",6.078,"Approved","OW437"
"2023-05-02 20:00",6.079,"Approved","OW437"
"2023-05-02 21:00",6.079,"Working","OW437"
"2023-05-02 22:00",6.079,"Working","OW437"
"2023-05-02 23:00",6.08,"Working","OW437"
"2023-05-03 00:00",6.082,"Working","OW437"
"2023-05-03 01:00",6.084,"Working","OW437"
"2023-05-03 02:00",6.086,"Working","OW437"
"2023-05-03 03:00",6.088,"Working","OW437"
"2023-05-03 04:00",6.091,"Working","OW437"
"2023-05-03 05:00",6.094,"Working","OW437"
"2023-05-03 06:00",6.097,"Working","OW437"
"2023-05-03 07:00",6.1,"Working","OW437"
"2023-05-03 08:00",6.103,"Working","OW437"
"2023-05-03 09:00",6.105,"Working","OW437"
"2023-05-03 10:00",6.107,"Working","OW437"
"2023-05-03 11:00",6.109,"Working","OW437"
"2023-05-03 12:00",6.11,"Working","OW437"
"2023-05-03 13:00",6.112,"Working","OW437"
"2023-05-03 14:00",6.114,"Working","OW437"
"2023-05-03 15:00",6.115,"Working","OW437"
"2023-05-03 16:00",6.116,"Working","OW437"
"2023-05-03 17:00",6.117,"Working","OW437"
"2023-05-03 18:00",6.117,"Working","OW437"
"2023-05-03 19:00",6.118,"Working","OW437"
"2023-05-03 20:00",6.118,"Working","OW437"
"2023-05-03 21:00",6.119,"Working","OW437"
"2023-05-03 22:00",6.119,"Working","OW437"
"2023-05-03 23:00",6.119,"Working","OW437"
"2023-05-04 00:00",6.12,"Working","OW437"
"2023-05-04 01:00",6.121,"Working","OW437"
"2023-05-04 02:00",6.122,"Working","OW437"
"2023-05-04 03:00",6.124,"Working","OW437"
"2023-05-04 04:00",6.126,"Working","OW437"
"2023-05-04 05:00",6.128,"Working","OW437"
"2023-05-04 06:00",6.131,"Working","OW437"
"2023-05-04 07:00",6.133,"Working","OW437"
"2023-05-04 08:00",6.136,"Working","OW437"
"2023-05-04 09:00",6.138,"Working","OW437"
"2023-05-04 10:00",6.141,"Working","OW437"
"2023-05-04 11:00",6.143,"Working","OW437"
"2023-05-04 12:00",6.144,"Working","OW437"
"2023-05-04 13:00",6.146,"Working","OW437"
"2023-05-04 14:00",6.147,"Working","OW437"
"2023-05-04 15:00",6.148,"Working","OW437"
"2023-05-04 16:00",6.148,"Working","OW437"
"2023-05-04 17:00",6.149,"Working","OW437"
"2023-05-04 18:00",6.151,"Working","OW437"
"2023-05-04 19:00",6.152,"Working","OW437"
"2023-05-04 20:00",6.152,"Working","OW437"
"2023-05-04 21:00",6.153,"Working","OW437"
"2023-05-04 22:00",6.154,"Working","OW437"
"2023-05-04 23:00",6.154,"Working","OW437"
"2023-05-05 00:00",6.155,"Working","OW437"
"2023-05-05 01:00",6.157,"Working","OW437"
"2023-05-05 02:00",6.159,"Working","OW437"
"2023-05-05 03:00",6.162,"Working","OW437"
"2023-05-05 04:00",6.164,"Working","OW437"
"2023-05-05 05:00",6.166,"Working","OW437"
"2023-05-05 06:00",6.169,"Working","OW437"
"2023-05-05 07:00",6.171,"Working","OW437"
"2023-05-05 08:00",6.174,"Working","OW437"
"2023-05-05 09:00",6.174,"Working","OW437"
"2023-05-05 10:00",6.176,"Working","OW437"
"2023-05-05 11:00",6.178,"Working","OW437"
"2023-05-05 12:00",6.18,"Working","OW437"
"2023-05-05 13:00",6.182,"Working","OW437"
"2023-05-05 14:00",6.183,"Working","OW437"
"2023-05-05 15:00",6.184,"Working","OW437"
"2023-05-05 16:00",6.184,"Working","OW437"
"2023-05-05 17:00",6.185,"Working","OW437"
"2023-05-05 18:00",6.186,"Working","OW437"
"2023-05-05 19:00",6.188,"Working","OW437"
"2023-05-05 20:00",6.19,"Working","OW437"
"2023-05-05 21:00",6.192,"Working","OW437"
"2023-05-05 22:00",6.194,"Working","OW437"
"2023-05-05 23:00",6.195,"Working","OW437"
"2023-05-06 00:00",6.197,"Working","OW437"
"2023-05-06 01:00",6.199,"Working","OW437"
"2023-05-06 02:00",6.2,"Working","OW437"
"2023-05-06 03:00",6.202,"Working","OW437"
"2023-05-06 04:00",6.204,"Working","OW437"
"2023-05-06 05:00",6.206,"Working","OW437"
"2023-05-06 06:00",6.207,"Working","OW437"
"2023-05-06 07:00",6.209,"Working","OW437"
"2023-05-06 08:00",6.21,"Working","OW437"
"2023-05-06 09:00",6.212,"Working","OW437"
"2023-05-06 10:00",6.213,"Working","OW437"
"2023-05-06 11:00",6.214,"Working","OW437"
"2023-05-06 12:00",6.215,"Working","OW437"
"2023-05-06 13:00",6.217,"Working","OW437"
"2023-05-06 14:00",6.219,"Working","OW437"
"2023-05-06 15:00",6.22,"Working","OW437"
"2023-05-06 16:00",6.222,"Working","OW437"
"2023-05-06 17:00",6.223,"Working","OW437"
"2023-05-06 18:00",6.225,"Working","OW437"
"2023-05-06 19:00",6.226,"Working","OW437"
"2023-05-06 20:00",6.228,"Working","OW437"
"2023-05-06 21:00",6.229,"Working","OW437"
"2023-05-06 22:00",6.231,"Working","OW437"
"2023-05-06 23:00",6.232,"Working","OW437"
"2023-05-07 00:00",6.234,"Working","OW437"
"2023-05-07 01:00",6.236,"Working","OW437"
"2023-05-07 02:00",6.237,"Working","OW437"
"2023-05-07 03:00",6.239,"Working","OW437"
"2023-05-07 04:00",6.241,"Working","OW437"
"2023-05-07 05:00",6.242,"Working","OW437"
"2023-05-07 06:00",6.244,"Working","OW437"
"2023-05-07 07:00",6.245,"Working","OW437"
"2023-05-07 08:00",6.247,"Working","OW437"
"2023-05-07 09:00",6.248,"Working","OW437"
"2023-05-07 10:00",6.25,"Working","OW437"
"2023-05-07 11:00",6.252,"Working","OW437"
"2023-05-07 12:00",6.253,"Working","OW437"
"2023-05-07 13:00",6.254,"Working","OW437"
"2023-05-07 14:00",6.257,"Working","OW437"
"2023-05-07 15:00",6.259,"Working","OW437"
"2023-05-07 16:00",6.26,"Working","OW437"
"2023-05-07 17:00",6.262,"Working","OW437"
"2023-05-07 18:00",6.263,"Working","OW437"
"2023-05-07 19:00",6.264,"Working","OW437"
"2023-05-07 20:00",6.266,"Working","OW437"
"2023-05-07 21:00",6.267,"Working","OW437"
"2023-05-07 22:00",6.269,"Working","OW437"
"2023-05-07 23:00",6.27,"Working","OW437"
"2023-05-08 00:00",6.271,"Working","OW437"
"2023-05-08 01:00",6.273,"Working","OW437"
"2023-05-08 02:00",6.274,"Working","OW437"
"2023-05-08 03:00",6.275,"Working","OW437"
"2023-05-08 04:00",6.277,"Working","OW437"
"2023-05-08 05:00",6.278,"Working","OW437"
"2023-05-08 06:00",6.28,"Working","OW437"
"2023-05-08 07:00",6.281,"Working","OW437"
"2023-05-08 08:00",6.282,"Working","OW437"
"2023-05-08 09:00",6.283,"Working","OW437"
"2023-05-08 10:00",6.285,"Working","OW437"
"2023-05-08 11:00",6.286,"Working","OW437"
"2023-05-08 12:00",6.287,"Working","OW437"
"2023-05-08 13:00",6.289,"Working","OW437"
"2023-05-08 14:00",6.29,"Working","OW437"
"2023-05-08 15:00",6.291,"Working","OW437"
"2023-05-08 16:00",6.293,"Working","OW437"
"2023-05-08 17:00",6.293,"Working","OW437"
"2023-05-08 18:00",6.295,"Working","OW437"
"2023-05-08 19:00",6.296,"Working","OW437"
"2023-05-08 20:00",6.296,"Working","OW437"
"2023-05-08 21:00",6.297,"Working","OW437"
"2023-05-08 22:00",6.299,"Working","OW437"
"2023-05-08 23:00",6.3,"Working","OW437"
"2023-05-09 00:00",6.302,"Working","OW437"
"2023-05-09 01:00",6.303,"Working","OW437"
"2023-05-09 02:00",6.304,"Working","OW437"
"2023-05-09 03:00",6.306,"Working","OW437"
"2023-05-09 04:00",6.307,"Working","OW437"
"2023-05-09 05:00",6.309,"Working","OW437"
"2023-05-09 06:00",6.311,"Working","OW437"
"2023-05-09 07:00",6.313,"Working","OW437"
"2023-05-09 08:00",6.314,"Working","OW437"
"2023-05-09 09:00",6.316,"Working","OW437"
"2023-05-09 10:00",6.318,"Working","OW437"
"2023-05-09 11:00",6.32,"Working","OW437"
"2023-05-09 12:00",6.321,"Working","OW437"
"2023-05-09 13:00",6.323,"Working","OW437"
"2023-05-09 14:00",6.325,"Working","OW437"
"2023-05-09 15:00",6.327,"Working","OW437"
"2023-05-09 16:00",6.328,"Working","OW437"
"2023-05-09 17:00",6.329,"Working","OW437"
"2023-05-09 18:00",6.33,"Working","OW437"
"2023-05-09 19:00",6.332,"Working","OW437"
"2023-05-09 20:00",6.333,"Working","OW437"
"2023-05-09 21:00",6.334,"Working","OW437"
"2023-05-09 22:00",6.335,"Working","OW437"
"2023-05-09 23:00",6.336,"Working","OW437"
"2023-05-10 00:00",6.337,"Working","OW437"
"2023-05-10 01:00",6.338,"Working","OW437"
"2023-05-10 02:00",6.339,"Working","OW437"
"2023-05-10 03:00",6.34,"Working","OW437"
"2023-05-10 04:00",6.342,"Working","OW437"
"2023-05-10 05:00",6.343,"Working","OW437"
"2023-05-10 06:00",6.344,"Working","OW437"
"2023-05-10 07:00",6.345,"Working","OW437"
"2023-05-10 08:00",6.346,"Working","OW437"
"2023-05-10 09:00",6.347,"Working","OW437"
"2023-05-10 10:00",6.348,"Working","OW437"
"2023-05-10 11:00",6.35,"Working","OW437"
"2023-05-10 12:00",6.351,"Working","OW437"
"2023-05-10 13:00",6.352,"Working","OW437"
"2023-05-10 14:00",6.353,"Working","OW437"
"2023-05-10 15:00",6.354,"Working","OW437"
"2023-05-10 16:00",6.355,"Working","OW437"
"2023-05-10 17:00",6.356,"Working","OW437"
"2023-05-10 18:00",6.357,"Working","OW437"
"2023-05-10 19:00",6.358,"Working","OW437"
"2023-05-10 20:00",6.359,"Working","OW437"
"2023-05-10 21:00",6.359,"Working","OW437"
"2023-05-10 22:00",6.36,"Working","OW437"
"2023-05-10 23:00",6.361,"Working","OW437"
"2023-05-11 00:00",6.361,"Working","OW437"
"2023-05-11 01:00",6.363,"Working","OW437"
"2023-05-11 02:00",6.363,"Working","OW437"
"2023-05-11 03:00",6.365,"Working","OW437"
"2023-05-11 04:00",6.366,"Working","OW437"
"2023-05-11 05:00",6.368,"Working","OW437"
"2023-05-11 06:00",6.369,"Working","OW437"
"2023-05-11 07:00",6.371,"Working","OW437"
"2023-05-11 08:00",6.372,"Working","OW437"
"2023-05-11 09:00",6.373,"Working","OW437"
"2023-05-11 10:00",6.375,"Working","OW437"
"2023-05-11 11:00",6.376,"Working","OW437"
"2023-05-11 12:00",6.377,"Working","OW437"
"2023-05-11 13:00",6.379,"Working","OW437"
"2023-05-11 14:00",6.38,"Working","OW437"
"2023-05-11 15:00",6.382,"Working","OW437"
"2023-05-11 16:00",6.383,"Working","OW437"
"2023-05-11 17:00",6.384,"Working","OW437"
"2023-05-11 18:00",6.385,"Working","OW437"
"2023-05-11 19:00",6.386,"Working","OW437"
"2023-05-11 20:00",6.387,"Working","OW437"
"2023-05-11 21:00",6.387,"Working","OW437"
"2023-05-11 22:00",6.388,"Working","OW437"
"2023-05-11 23:00",6.389,"Working","OW437"
"2023-05-12 00:00",6.39,"Working","OW437"
"2023-05-12 01:00",6.39,"Working","OW437"
"2023-05-12 02:00",6.391,"Working","OW437"
"2023-05-12 03:00",6.392,"Working","OW437"
"2023-05-12 04:00",6.394,"Working","OW437"
"2023-05-12 05:00",6.395,"Working","OW437"
"2023-05-12 06:00",6.396,"Working","OW437"
"2023-05-12 07:00",6.398,"Working","OW437"
"2023-05-12 08:00",6.399,"Working","OW437"
"2023-05-12 09:00",6.4,"Working","OW437"
"2023-05-12 10:00",6.401,"Working","OW437"